カタログに戻る

EXPLORER 22

運用中科学LEO
NORAD 899·PAYLOAD·🇺🇸 United States

打ち上げ Oct 10, 1964 から Vandenberg Space Force Base

Loading…

次のパス (今後24時間)

TLE

最新Source: Space-Track

元期: Sep 14, 2026, 15:44 UTC

1 00899U 64064A   26257.65581429  .00000138  00000-0  11488-3 0  9995
2 00899  79.6919  29.0888 0118887 336.2197  23.3485 13.83074859117347

AllMySatでEXPLORER 22をリアルタイム追跡

Download on the App Store